Greenwood Leflore Airport
KGWO : now visible

Airfield :











YOU CAN JOIN US ON...

 
LOGIN :

Register | Disclaimer

   EN    FR    IT 

 









Legend :    VFR   Marginal VFR   IFR   Intensive IFR   Very Intensive IFR
Visi :
Ceiling :
>= 8 km
>= 3000ft
5 to 8 km
1000 to 3000 ft
1500m to 5 km
500 to 1000 ft
800 to 1500m
200 to 500 ft
< 800m
< 200 ft
Symbols :   Thunderstorms  Fog  Heavy snow  Heavy precipitations  Wind > 20 kt






- Airport Elevation : 162 ft


KGWO - Greenwood Leflore

CURRENT METAR :
  • 221353Z AUTO 19004KT 10SM OVC090 11/01 A3026 RMK AO2 SLP247 T01110011

EXPIRED METARs :
  • 221253Z AUTO 21003KT 10SM OVC090 09/01 A3026 RMK AO2 SLP246 T00940011
  • 221153Z AUTO VRB05KT 10SM FEW095 08/00 A3023 RMK AO2 SLP237 T00830000 10094 20072 53009

TAF KGWO
Valid from the 22 at 12:00 until the 23 at 12:00 UTC


221120Z 2212/2312 VRB05KT P6SM SCT250
FM231000 13005KT P6SM BKN090
KZME FIR / North America



MET'MAP, your aeronautical weather chart ! - Copyright ORBIFLY December 2007 - Disclaimer

ORBIFLY MET'MAP TEAM :

Programming & Development : Alexandra Zaïnal
Concept & original design : Baudouin d'Aumeries
Assistance for programming : Marc-Olivier Méhu
Technical & hardware support : Manuel Goepfert

Contact : metmap@orbifly.com




SOURCES & CREDITS :

   NOAA       Earth
Advisory